TimeCST,TemperatureF,Dew PointF,Humidity,Sea Level PressureIn,VisibilityMPH,Wind Direction,Wind SpeedMPH,Gust SpeedMPH,PrecipitationIn,Events,Conditions,WindDirDegrees,DateUTC
12:53 AM,1.9,-4.0,76,30.21,10.0,Calm,Calm,-,N/A,,Overcast,0,2013-03-03 06:53:00
1:53 AM,3.0,-2.9,76,30.20,10.0,Calm,Calm,-,N/A,,Overcast,0,2013-03-03 07:53:00
2:53 AM,1.0,-5.1,75,30.20,10.0,Calm,Calm,-,N/A,,Mostly Cloudy,0,2013-03-03 08:53:00
3:53 AM,-0.0,-5.1,79,30.19,10.0,Calm,Calm,-,N/A,,Mostly Cloudy,0,2013-03-03 09:53:00
4:53 AM,1.9,-4.0,76,30.19,10.0,Calm,Calm,-,N/A,,Overcast,0,2013-03-03 10:53:00
5:53 AM,5.0,-0.9,76,30.19,10.0,Calm,Calm,-,N/A,,Overcast,0,2013-03-03 11:53:00
6:53 AM,5.0,-0.0,80,30.20,10.0,Calm,Calm,-,N/A,,Overcast,0,2013-03-03 12:53:00
7:53 AM,8.1,3.9,83,30.19,10.0,Calm,Calm,-,N/A,,Overcast,0,2013-03-03 13:53:00
8:53 AM,16.0,3.9,59,30.17,10.0,SE,8.1,-,N/A,,Mostly Cloudy,130,2013-03-03 14:53:00
9:53 AM,21.0,1.0,42,30.16,10.0,SE,6.9,-,N/A,,Clear,140,2013-03-03 15:53:00
10:53 AM,26.1,-0.9,31,30.15,10.0,SSE,10.4,-,N/A,,Clear,150,2013-03-03 16:53:00
11:53 AM,28.0,1.9,33,30.14,10.0,SE,10.4,17.3,N/A,,Clear,130,2013-03-03 17:53:00
12:53 PM,28.9,-0.9,28,30.12,10.0,South,8.1,17.3,N/A,,Clear,170,2013-03-03 18:53:00
1:53 PM,30.0,1.0,29,30.09,10.0,SE,11.5,16.1,N/A,,Clear,130,2013-03-03 19:53:00
2:53 PM,30.9,1.9,29,30.09,10.0,ESE,10.4,17.3,N/A,,Clear,110,2013-03-03 20:53:00
5:53 PM,28.0,3.9,36,30.09,10.0,SE,8.1,-,N/A,,Overcast,130,2013-03-03 23:53:00
6:53 PM,25.0,6.1,45,30.10,10.0,ESE,8.1,-,N/A,,Overcast,120,2013-03-04 00:53:00
7:53 PM,24.1,7.0,48,30.10,10.0,SE,9.2,-,N/A,,Scattered Clouds,130,2013-03-04 01:53:00
8:53 PM,23.0,9.0,55,30.10,10.0,SE,10.4,-,N/A,,Overcast,130,2013-03-04 02:53:00
9:53 PM,19.0,5.0,54,30.10,10.0,ESE,5.8,-,N/A,,Mostly Cloudy,120,2013-03-04 03:53:00
10:53 PM,19.0,6.1,57,30.10,10.0,ESE,8.1,-,N/A,,Overcast,120,2013-03-04 04:53:00
11:53 PM,19.9,10.0,65,30.10,10.0,ESE,8.1,-,N/A,,Overcast,110,2013-03-04 05:53:00